THORAD DELTA 1 DEB, 42615

Orbit data source: Space-Track

THORAD DELTA 1 DEB, 42615 is space debris in SSO originally from a launch on Fri, 15 Nov 1974 UTC launched from the Air Force Western Test Range (AFWTR). Debris objects in space refer to the collection of defunct objects orbiting the Earth. Examples of debris include non-operational satellites, rocket bodies, and fragments generated from explosions, collisions, or faulty payload assembly.

Loading next visibility...
Identifier
42615, 1974-089GG
Orbit
SSO
Country
Flag of USUS
Related business
Manufacturer
Unknown
Mission
Spacecraft
Bus & Motor
Unknown
Mass
Unknown
Launch date (UTC)
1974-11-15 (52 years ago)
Launch vehicle
Unknown
Launch site
Air Force Western Test Range (AFWTR)
Object type
Payload
Rocket body
Debris
Shape & HBR
Unknown shape, 0.1 m
Radar Cross Section
Medium (>0.1 m² and <1 m²)

Expand to show TLE details & history
Last TLE update: 1 week ago

TLE from 1 week ago
0 THORAD DELTA 1 DEB
1 42615U 74089GG  26159.82805883  .00000112  00000-0  89281-3 0  9996
2 42615 101.7866 149.2320 0074557 316.9669 161.5507 12.60773436577023
Epoch: 2026-06-08T19:52Z
TLE epoch observation values (Epoch: 2026-06-08T19:52:24.282Z)
Latitude
59.17888°
Longitude
154.28884°
Altitude
1,484.795 km
Speed
7.101 km/s
True Right ascension
23h 18m 23s
True Declination
59° 02' 29"
Sunlit
Object was in daylight at epoch
Visualization orbit readout
Latitude
Unknown
Longitude
Unknown
Altitude
Unknown
Speed
Unknown
Apparent Right ascension
Unknown
Apparent Declination
Unknown
Sunlit
N/A
Visualization observer readout
Local Sidereal Time
20:36:33
Azimuth
Unknown
Elevation
Unknown
Doppler factor
Unknown
Orbital elements
Apogee altitude
1,475.409 km
Perigee altitude
1,359.168 km
Semi-major axis
7,795.425 km
Eccentricity
0.00746
Inclination
101.7866°
RAAN
149.232°
Arg. of periapsis
316.9669°
True anomaly
161.8187°
Mean anomaly
161.5507°
Eccentric anomaly
161.68494°
Mean motion
3.15343 °/min
Orbital period
114.16 mins
BSTAR
0.00089281
Loading maneuver chart data...
Computing Atmospheric mass density...

Documentation

Showing up to 5 results
|